This demonstration page uses our WeatherBlox Daily Observations layout. Learn more.

Left ArrowRight Arrow

Hourly Observations for May 14, 2021

Temp ( °F °C ) Dew Point ( °F °C ) Humidity (%) Winds ( mph kmh ) Pressure ( in mb ) Visibility ( mi km ) Precip ( " mm )
12:15 am 00:15 Partly Cloudy with Thunderstorms 56 13.2 51 10.7 85 85 SSE 22 35 30.10 1019 10 16 N/A
12:35 am 00:35 Clear 55 13 51 10.6 85 85 SSE 17 28 30.10 1019 10 16 N/A
12:55 am 00:55 Clear with Thunderstorms 55 12.6 51 10.6 88 88 SSE 23 37 30.09 1019 10 16 N/A
1:15 am 01:15 Clear with Thunderstorms 55 12.5 51 10.5 88 88 SSE 17 28 30.07 1018 10 16 N/A
1:35 am 01:35 Clear 55 12.5 50 10.1 85 85 SSE 14 22 30.07 1018 10 16 N/A
1:55 am 01:55 Clear 55 12.7 50 9.8 83 83 S 14 22 30.08 1019 10 16 N/A
2:15 am 02:15 Clear 55 12.6 49 9.6 82 82 S 15 24 30.08 1019 10 16 N/A
2:35 am 02:35 Clear 55 12.5 49 9.5 82 82 S 17 28 30.08 1019 10 16 N/A
2:55 am 02:55 Clear 55 12.5 49 9.5 82 82 S 24 39 30.07 1018 10 16 N/A
3:15 am 03:15 Clear 54 12.2 49 9.2 82 82 S 24 39 30.07 1018 10 16 N/A
3:35 am 03:35 Clear 54 12.1 48 9.1 82 82 S 28 44 30.06 1018 10 16 N/A
3:55 am 03:55 Clear 53 11.8 48 9 83 83 S 28 44 30.06 1018 10 16 N/A
4:15 am 04:15 Clear 53 11.5 48 9 85 85 S 23 37 30.08 1019 10 16 N/A
4:35 am 04:35 Clear 52 11.1 48 9 87 87 S 22 35 30.07 1018 10 16 N/A
4:55 am 04:55 Clear 51 10.8 48 8.8 88 88 S 20 31 30.07 1018 10 16 N/A
5:15 am 05:15 Clear 51 10.5 48 8.7 89 89 S 18 30 30.08 1019 10 16 N/A
5:35 am 05:35 Clear 51 10.5 47 8.6 88 88 S 20 31 30.08 1019 10 16 N/A
5:55 am 05:55 Clear 50 10.1 47 8.5 90 90 S 16 26 30.07 1018 10 16 N/A
6:15 am 06:15 Clear 50 10.1 47 8.5 90 90 S 20 31 30.07 1018 10 16 N/A
6:35 am 06:35 Sunny 50 10.1 47 8.5 90 90 S 14 22 30.08 1019 10 16 N/A
6:55 am 06:55 Sunny 50 10.2 47 8.5 89 89 S 16 26 30.08 1019 10 16 N/A
7:15 am 07:15 Sunny 51 10.4 47 8.6 89 89 SSW 16 26 30.08 1019 10 16 N/A
7:35 am 07:35 Sunny 52 11.1 48 8.7 85 85 S 14 22 30.08 1019 10 16 N/A
7:55 am 07:55 Sunny 53 11.6 48 8.8 83 83 SSW 13 20 30.08 1019 10 16 N/A
8:15 am 08:15 Sunny 54 12.1 48 8.9 81 81 SSW 10 17 30.09 1019 10 16 N/A
8:35 am 08:35 Sunny 55 12.6 48 9.1 79 79 SSW 5 7 30.10 1019 10 16 N/A
8:55 am 08:55 Partly Cloudy 56 13.1 49 9.5 79 79 S 5 7 30.09 1019 10 16 N/A
9:15 am 09:15 Partly Cloudy 56 13.3 49 9.6 78 78 N N/A 30.09 1019 10 16 N/A
9:35 am 09:35 Partly Cloudy 57 13.9 50 9.8 77 77 WSW 3 6 30.09 1019 10 16 N/A
9:55 am 09:55 Mostly Cloudy 58 14.5 50 10.2 76 76 N N/A 30.08 1019 10 16 N/A
10:15 am 10:15 Mostly Cloudy 58 14.2 50 10.1 77 77 SW 3 6 30.08 1019 10 16 N/A
10:35 am 10:35 Mostly Cloudy 58 14.7 51 10.5 76 76 SW 3 6 30.08 1019 10 16 N/A
10:55 am 10:55 Cloudy 58 14.6 51 10.6 77 77 WNW 3 6 30.07 1018 10 16 N/A
11:15 am 11:15 Cloudy 60 15.6 51 10.8 73 73 N N/A 30.06 1018 10 16 N/A
11:35 am 11:35 Mostly Cloudy 60 15.6 51 10.8 73 73 N N/A 30.06 1018 10 16 N/A
11:55 am 11:55 Cloudy 60 15.5 52 10.9 74 74 N N/A 30.06 1018 10 16 N/A
12:15 pm 12:15 Mostly Cloudy 61 16.3 53 11.4 73 73 ESE 3 6 30.05 1018 10 16 N/A
12:35 pm 12:35 Mostly Cloudy 62 16.6 52 11.3 71 71 N N/A 30.04 1017 10 16 N/A
12:55 pm 12:55 Cloudy 63 17.4 54 12.3 72 72 N N/A 30.02 1017 10 16 N/A
1:15 pm 13:15 Partly Cloudy 64 17.9 55 12.7 72 72 NNE 3 6 30.02 1017 10 16 N/A
1:35 pm 13:35 Partly Cloudy 64 17.8 54 12.4 71 71 E 6 9 30.01 1016 10 16 N/A
1:55 pm 13:55 Partly Cloudy 65 18.2 54 12.4 69 69 E 7 11 30.00 1016 10 16 N/A
2:15 pm 14:15 Partly Cloudy 64 18 53 11.8 67 67 ESE 3 6 30.02 1017 10 16 N/A
2:35 pm 14:35 Mostly Cloudy 65 18.2 54 12.2 68 68 E 5 7 30.00 1016 10 16 N/A
2:55 pm 14:55 Partly Cloudy 66 18.9 55 13 69 69 E 9 15 29.97 1015 10 16 N/A
3:15 pm 15:15 Partly Cloudy 67 19.6 56 13.2 67 67 E 6 9 29.98 1015 10 16 N/A
3:35 pm 15:35 Mostly Cloudy 67 19.5 55 13 66 66 E 3 6 29.99 1015 10 16 N/A
3:55 pm 15:55 Cloudy 67 19.6 54 12.4 63 63 SE 3 6 29.99 1015 10 16 N/A
4:15 pm 16:15 Mostly Cloudy 68 19.8 55 12.9 65 65 E 7 11 29.98 1015 10 16 N/A
4:35 pm 16:35 Partly Cloudy 67 19.6 55 12.7 65 65 ESE 7 11 29.97 1015 10 16 N/A
4:55 pm 16:55 Mostly Cloudy 67 19.5 54 12.4 64 64 SE 7 11 29.98 1015 10 16 N/A
5:15 pm 17:15 Partly Cloudy 68 19.8 55 12.5 63 63 ESE 9 15 29.96 1015 10 16 N/A
5:35 pm 17:35 Mostly Cloudy 67 19.7 55 12.5 63 63 SE 12 19 29.95 1014 10 16 N/A
5:55 pm 17:55 Partly Cloudy 68 20.1 55 12.5 62 62 SE 12 19 29.94 1014 10 16 N/A
6:15 pm 18:15 Sunny 68 19.8 54 12 61 61 SE 13 20 29.94 1014 10 16 N/A
6:35 pm 18:35 Partly Cloudy 68 20.1 55 12.5 62 62 SSE 14 22 29.94 1014 10 16 N/A
6:55 pm 18:55 Sunny 67 19.5 54 12 62 62 SE 13 20 29.95 1014 10 16 N/A
7:15 pm 19:15 Sunny 66 19.1 53 11.9 63 63 SE 9 15 29.95 1014 10 16 N/A
7:35 pm 19:35 Sunny 66 19 53 11.9 64 64 ESE 9 15 29.96 1015 10 16 N/A
7:55 pm 19:55 Sunny 66 18.7 54 12.3 67 67 SE 8 13 29.96 1015 10 16 N/A
8:15 pm 20:15 Sunny 65 18.5 54 12.2 67 67 SE 7 11 29.96 1015 10 16 N/A
8:35 pm 20:35 Sunny 64 17.5 55 12.5 73 73 E 5 7 29.97 1015 10 16 N/A
8:55 pm 20:55 Clear 62 16.6 54 12.4 76 76 ESE 3 6 29.98 1015 10 16 N/A
9:15 pm 21:15 Clear 62 16.6 55 12.5 77 77 SE 3 6 29.98 1015 10 16 N/A
9:35 pm 21:35 Clear 61 16.1 54 12.3 78 78 N N/A 29.99 1015 10 16 N/A
9:55 pm 21:55 Clear 58 14.6 54 12.2 86 86 ESE 5 7 30.00 1016 10 16 N/A
10:15 pm 22:15 Clear 58 14.3 54 12.1 87 87 ESE 3 6 30.00 1016 10 16 N/A
10:35 pm 22:35 Clear 58 14.4 54 12 86 86 ESE 3 6 30.00 1016 10 16 N/A
10:55 pm 22:55 Clear 55 12.9 53 11.7 92 92 NE 6 9 30.00 1016 7 11 N/A
11:15 pm 23:15 Clear 55 12.5 52 11.2 92 92 N N/A 30.02 1017 7 11 N/A
11:35 pm 23:35 Clear 53 11.9 52 11 94 94 N N/A 30.02 1017 7 11 N/A
11:55 pm 23:55 Clear 53 11.7 51 10.4 92 92 ESE 3 6 30.03 1017 7 11 N/A

Powered by AerisWeather